Location: Munderkingen
(48.2395°N, 9.6433°E)
Time: 19:13:29
(UTC+01:00)

Tiangong 1 - Visible Passes

Search period start: 17 January 2018 00:00
Search period end: 27 January 2018 00:00
Orbit: 264 x 288 km, 42.8° (Epoch: 17 January)

Date Brightness Start Highest point End Pass type
(mag) Time Alt. Az. Time Alt. Az. Time Alt. Az.
17 Jan 2.8 17:58:49 10° SSW 18:00:35 17° SSE 18:02:21 10° ESE visible
18 Jan 2.6 17:58:23 10° SW 18:00:21 20° S 18:02:18 10° ESE visible
19 Jan 2.5 17:57:58 10° SW 18:00:00 22° S 18:02:01 10° ESE visible
20 Jan 2.6 17:57:29 10° WSW 17:59:30 22° S 18:01:32 10° SE visible
21 Jan 2.8 17:56:55 10° WSW 17:58:52 20° S 18:00:49 10° SE visible
22 Jan 3.1 17:56:19 10° WSW 17:58:05 17° SSW 17:59:50 10° SSE visible
23 Jan 3.4 17:55:45 10° SW 17:57:08 14° SSW 17:58:31 10° SSE visible
24 Jan 3.9 17:55:41 10° SSW 17:56:01 10° SSW 17:56:20 10° SSW visible
